Погода в Шаргуне

Узбекистан     38°27′56″N   67°57′48″E
темп.,
°C
ветер,
м/с
пор.,
м/с
влажн.,
%
обл.,
%
осадки,
мм/ч
давл.,
гПа
погр.,
м
3 марта, ср
ср323:00+9с4561100 0.1 1023362
02:00+8сз337196 0.1 1022153
05:00+8с127498 0.3 102296
08:00+8всв1281100 0.8 1022223
11:00+8св2276100 1.5 1022402
14:00+9св2273100 0.1 1020515
17:00+11св226477 0.1 1020760
20:00+8ссв227417 0.0 102129
4 марта, чт
чт423:00+8с226616 0.0 102023
02:00+7с23563 0.0 101924
05:00+8с334932 0.0 101828
08:00+9с225197 0.0 101932
11:00+13ссз554994 0.2 1018661
14:00+15ссв224130 0.1 10171148
17:00+15ссз214151 0.1 1017973
20:00+11ссв225740 0.3 102025
5 марта, пт
пт523:00+10ссз225856 1.1 102225
02:00+9ссв336536 0.8 102456
05:00+8с128565 3.6 1025142
08:00+8ссв0183100 2.7 1026101
11:00+9юв228391 3.0 1026414
14:00+12всв346464 0.1 1023780
17:00+13в455633 0.1 1020953
20:00+10с33520 0.0 102028
6 марта, сб
сб623:00+9ссз333748 0.0 101837
02:00+10с333683 0.0 101437
05:00+11с333192 0.0 101030
08:00+13с3330100 0.0 100932
11:00+16с5836100 0.1 1010516
14:00+17сз3531100 0.0 10102313
17:00+12ю5657100 0.1 1013631
20:00+8ююз2388100 2.9 1016254
7 марта, вс
вс723:00+6ю4779100 6.6 1019658
02:00+4ююв1287100 1.2 1019332
05:00+3ююв2294100 2.9 1020220
08:00+3всв2291100 0.3 1021202
11:00+4всв1190100 0.6 1022268
14:00+6юв2172100 0.1 1020686
17:00+8в1264100 0.1 1018680
20:00+7ссз117221 0.0 101822